This is the latest recevied weather packets stored in our database for station/object GAPWX. If no packets are shown the sender has not sent any weather packets the latest 1 day(s).
| Time | Temp. | Humidity | Pressure | Rain* | Wind** | Luminosity | Snow |
|---|---|---|---|---|---|---|---|
| 1777997114 | 3.89° C | 76% | 1013 hPa | 3.81 mm | 0 m/s | - | - |
| 1777996816 | 3.33° C | 76% | 1012.9 hPa | 3.56 mm | 0 m/s | - | - |
| 1777996513 | 3.33° C | 76% | 1013 hPa | 3.3 mm | 0 m/s | - | - |
| 1777995004 | 2.78° C | 77% | 1012.6 hPa | 2.29 mm | 0 m/s | - | - |
| 1777994703 | 2.78° C | 77% | 1012.5 hPa | 2.29 mm | 0 m/s | - | - |
| 1777994400 | 2.78° C | 77% | 1012.5 hPa | 2.03 mm | 0 m/s | - | - |
| 1777993497 | 2.22° C | 76% | 1012.5 hPa | 1.78 mm | 0 m/s | - | - |
| 1777992895 | 2.22° C | 77% | 1012.6 hPa | 1.52 mm | 0 m/s | - | - |
| 1777992593 | 2.22° C | 76% | 1012.4 hPa | 1.52 mm | 0 m/s | - | - |
| 1777992292 | 2.22° C | 76% | 1012.5 hPa | 1.52 mm | 0 m/s | - | - |
| 1777991088 | 1.67° C | 76% | 1012.4 hPa | 1.02 mm | 0 m/s | - | - |
| 1777990784 | 1.67° C | 76% | 1012.4 hPa | 1.02 mm | 0 m/s | - | - |
| 1777989881 | 1.67° C | 76% | 1012.3 hPa | 0.76 mm | 0 m/s | - | - |
| 1777989279 | 1.67° C | 76% | 1012.2 hPa | 0.76 mm | 0 m/s | - | - |
| 1777988676 | 1.11° C | 76% | 1012 hPa | 0.51 mm | 0 m/s | - | - |
| 1777988374 | 1.11° C | 76% | 1012 hPa | 0.51 mm | 0 m/s | - | - |
| 1777988073 | 1.11° C | 76% | 1012 hPa | 0.51 mm | 0 m/s | - | - |
| 1777987771 | 1.11° C | 76% | 1012 hPa | 0.51 mm | 0 m/s | - | - |
| 1777987471 | 1.11° C | 76% | 1012 hPa | 0.51 mm | 0 m/s | - | - |
| 1777986868 | 1.11° C | 77% | 1012 hPa | 0.25 mm | 0 m/s | - | - |
| 1777986267 | 1.11° C | 76% | 1012.1 hPa | 0.25 mm | 0 m/s | - | - |
| 1777985360 | 1.11° C | 76% | 1012.2 hPa | 0 mm | 0 m/s | - | - |
| 1777985059 | 1.11° C | 76% | 1012.2 hPa | 0 mm | 0 m/s | - | - |
| 1777984758 | 1.11° C | 76% | 1012 hPa | 14.73 mm | 0 m/s | - | - |
| 1777984456 | 1.11° C | 76% | 1012 hPa | 14.73 mm | 0 m/s | - | - |
* Rain since midnight (hover to see other rain measurements)
** Current wind speed in m/s (hover to see current wind gust speed)